Location: Celina Division
(33.3022°N, 96.7580°W)
Time: 14:11:41
(UTC+00:00)

Cosmos 1500 Rocket - Pass Details

Date: 08 December 2021
Orbit: 602 x 632 km, 82.5° (Epoch: 28 January)

Event Time Altitude Azimuth Distance (km) Brightness Sun altitude
Rises 12:22:13 0° 202° (SSW) 2,900 7.0 -11.6°
Reaches altitude 10° 12:24:32 10° 209° (SSW) 2,000 6.1 -11.2°
Maximum altitude 12:28:43 41° 280° (W) 924 4.0 -10.4°
Drops below altitude 10° 12:32:57 10° 350° (N) 2,018 5.9 -9.5°
Sets 12:35:18 0° 358° (N) 2,929 6.8 -9.1°
